Anaktuvuk Pass, AK

12:44 PM AKST on December 17, 2017 (GMT -0900)
Anaktuvuk Pass

Weather History for PAKP - November, 2012

Change the Weather History Date:

Friday, November 9, 2012

  Actual Average Record
Temperature  
Mean Temperature -4 °F -  
Max Temperature 3 °F 6 °F 33 °F (2013)
Min Temperature -11 °F -1 °F -20 °F (1999)
Degree Days  
Heating Degree Days 69    
Moisture  
Dew Point -16 °F    
Average Humidity 62    
Maximum Humidity 77    
Minimum Humidity 54    
Precipitation  
Precipitation 0.00 in - - ()
Sea Level Pressure  
Sea Level Pressure 29.90 in    
Wind  
Wind Speed 7 mph (North)    
Max Wind Speed 16 mph    
Max Gust Speed -    
Visibility 10 miles    
Events      
Averages and records for this station are not official NWS values.
T = Trace of Precipitation, MM = Missing Value Source: NWS Daily Summary

Daily Weather History Graph

Daily Weather History Graph

Search for Another Location

Airport or City:

Trip Planner

Search our weather history database for the weather conditions in past years. The results will help you decide how hot, cold, wet, or windy it might be!

Date:

Astronomy

Nov. 09, 2012 Rise Set
Actual Time 9:57 AM AKST 3:43 PM AKST
Civil Twilight 8:43 AM AKST 4:56 PM AKST
Nautical Twilight 7:32 AM AKST 6:07 PM AKST
Astronomical Twilight 6:27 AM AKST 7:12 PM AKST
Moon 2:53 AM AKST (11/9) 3:00 PM AKST (11/9)
Length of Visible Light 8h 12m
Length of Day
5h 45m
Waning Crescent, 22% of the Moon is Illuminated
Nov 9
Waning Crescent
Nov 13
New
Nov 20
First Quarter
Nov 28
Full
Dec 6
Last Quarter

Hourly Weather History & Observations

Time (AKST) Temp. Windchill Dew Point Humidity Pressure Visibility Wind Dir Wind Speed Gust Speed Precip Events Conditions
12:16 AM -0.4 °F -16.7 °F -13.0 °F 55% 30.07 in 10.0 mi South 10.4 mph - N/A   Clear
12:36 AM 3.2 °F -13.9 °F -5.8 °F 66% 30.06 in 10.0 mi South 12.7 mph - N/A   Clear
12:56 AM 3.2 °F -15.9 °F -7.6 °F 61% 30.05 in 10.0 mi South 16.1 mph - N/A   Clear
1:16 AM -0.4 °F -18.4 °F -13.0 °F 55% 30.04 in 10.0 mi SSW 12.7 mph - N/A   Clear
1:36 AM -0.4 °F -17.6 °F -9.4 °F 66% 30.03 in 10.0 mi South 11.5 mph - N/A   Clear
1:56 AM -0.4 °F -17.6 °F -11.2 °F 60% 30.03 in 10.0 mi South 11.5 mph - N/A   Clear
2:16 AM 1.4 °F -12.5 °F -9.4 °F 61% 30.02 in 10.0 mi SSW 8.1 mph - N/A   Clear
2:36 AM -0.4 °F -16.7 °F -11.2 °F 60% 30.02 in 10.0 mi South 10.4 mph - N/A   Clear
2:56 AM -0.4 °F -12.0 °F - N/A% 30.01 in 10.0 mi SSW 5.8 mph - N/A   Clear
3:16 AM -2.2 °F -16.8 °F -13.0 °F 60% 30.01 in 10.0 mi South 8.1 mph - N/A   Clear
3:36 AM -0.4 °F -13.4 °F -9.4 °F 66% 30.01 in 10.0 mi SSW 6.9 mph - N/A   Clear
3:56 AM -2.2 °F -12.5 °F -14.8 °F 55% 30.01 in 10.0 mi SSW 4.6 mph - N/A   Clear
4:16 AM -4.0 °F -12.4 °F -14.8 °F 60% 30.00 in 10.0 mi WSW 3.5 mph - N/A   Clear
4:36 AM -4.0 °F - -13.0 °F 65% 29.99 in 10.0 mi Calm Calm - N/A   Clear
4:56 AM -5.8 °F -16.7 °F -14.8 °F 65% 29.99 in 10.0 mi SSW 4.6 mph - N/A   Clear
5:16 AM -5.8 °F - -16.6 °F 60% 29.98 in 10.0 mi Calm Calm - N/A   Clear
5:36 AM -7.6 °F - -18.4 °F 59% 29.98 in 10.0 mi Calm Calm - N/A   Clear
5:56 AM -7.6 °F - -16.6 °F 65% 29.97 in 10.0 mi Calm Calm - N/A   Clear
6:16 AM -7.6 °F - -18.4 °F 59% 29.96 in 10.0 mi Calm Calm - N/A   Clear
6:36 AM -9.4 °F - -20.2 °F 59% 29.96 in 10.0 mi Calm Calm - N/A   Clear
6:56 AM -9.4 °F - -18.4 °F 65% 29.95 in 10.0 mi Calm Calm - N/A   Clear
7:16 AM -7.6 °F - -16.6 °F 65% 29.95 in 10.0 mi Calm Calm - N/A   Clear
7:36 AM -11.2 °F - -23.8 °F 54% 29.94 in 10.0 mi Calm Calm - N/A   Clear
7:56 AM -7.6 °F - -14.8 °F 71% 29.93 in 10.0 mi Calm Calm - N/A   Clear
8:16 AM -9.4 °F - -18.4 °F 65% 29.93 in 10.0 mi Calm Calm - N/A   Clear
8:36 AM -7.6 °F - -20.2 °F 54% 29.93 in 10.0 mi Calm Calm - N/A   Clear
8:56 AM -9.4 °F - -16.6 °F 71% 29.93 in 10.0 mi Calm Calm - N/A   Clear
9:16 AM -7.6 °F - -20.2 °F 54% 29.92 in 10.0 mi Calm Calm - N/A   Clear
9:36 AM -7.6 °F - -18.4 °F 59% 29.92 in 10.0 mi Calm Calm - N/A   Clear
9:56 AM -5.8 °F -16.7 °F -18.4 °F 55% 29.91 in 10.0 mi North 4.6 mph - N/A   Clear
10:16 AM -7.6 °F - -16.6 °F 65% 29.91 in 10.0 mi Calm Calm - N/A   Clear
10:36 AM -7.6 °F -18.8 °F -20.2 °F 54% 29.90 in 10.0 mi North 4.6 mph - N/A   Clear
10:56 AM -9.4 °F - -20.2 °F 59% 29.90 in 10.0 mi Calm Calm - N/A   Clear
11:16 AM -9.4 °F -26.8 °F -18.4 °F 65% 29.90 in 10.0 mi NNE 9.2 mph - N/A   Clear
11:36 AM -5.8 °F -21.2 °F -16.6 °F 60% 29.90 in 10.0 mi North 8.1 mph - N/A   Clear
11:56 AM -7.6 °F -24.6 °F -18.4 °F 59% 29.89 in 10.0 mi North 9.2 mph - N/A   Clear
12:16 PM -7.6 °F - -16.6 °F 65% 29.89 in 10.0 mi Calm Calm - N/A   Clear
12:36 PM -9.4 °F - -20.2 °F 59% 29.88 in 10.0 mi Calm Calm - N/A   Clear
12:56 PM -9.4 °F -25.6 °F -18.4 °F 65% 29.88 in 10.0 mi NNE 8.1 mph - N/A   Clear
1:16 PM -7.6 °F -23.4 °F -16.6 °F 65% 29.87 in 10.0 mi NNE 8.1 mph - N/A   Clear
1:36 PM -5.8 °F -21.2 °F -16.6 °F 60% 29.87 in 10.0 mi North 8.1 mph - N/A   Clear
1:56 PM -5.8 °F -14.5 °F -14.8 °F 65% 29.87 in 10.0 mi North 3.5 mph - N/A   Clear
2:16 PM -5.8 °F -21.2 °F -18.4 °F 55% 29.86 in 10.0 mi North 8.1 mph - N/A   Clear
2:36 PM -2.2 °F -16.8 °F -13.0 °F 60% 29.86 in 10.0 mi NNW 8.1 mph - N/A   Clear
3:16 PM -5.8 °F -22.4 °F -18.4 °F 55% 29.85 in 10.0 mi North 9.2 mph - N/A   Clear
3:36 PM -5.8 °F -21.2 °F -16.6 °F 60% 29.84 in 10.0 mi North 8.1 mph - N/A   Clear
3:56 PM -2.2 °F -15.6 °F -11.2 °F 66% 29.83 in 10.0 mi NNE 6.9 mph - N/A   Clear
4:16 PM -5.8 °F -21.2 °F -18.4 °F 55% 29.83 in 10.0 mi North 8.1 mph - N/A   Clear
4:36 PM -5.8 °F -22.4 °F -16.6 °F 60% 29.83 in 10.0 mi North 9.2 mph - N/A   Clear
4:56 PM -5.8 °F -19.9 °F -16.6 °F 60% 29.82 in 10.0 mi North 6.9 mph - N/A   Clear
5:16 PM -5.8 °F -19.9 °F -14.8 °F 65% 29.82 in 10.0 mi North 6.9 mph - N/A   Clear
5:36 PM -5.8 °F -22.4 °F -14.8 °F 65% 29.82 in 10.0 mi North 9.2 mph - N/A   Clear
5:56 PM -5.8 °F -21.2 °F -16.6 °F 60% 29.81 in 10.0 mi North 8.1 mph - N/A   Clear
6:16 PM -7.6 °F -18.8 °F -16.6 °F 65% 29.81 in 10.0 mi North 4.6 mph - N/A   Clear
6:36 PM -9.4 °F -26.8 °F -20.2 °F 59% 29.81 in 10.0 mi NNE 9.2 mph - N/A   Clear
6:56 PM -5.8 °F -22.4 °F -16.6 °F 60% 29.81 in 10.0 mi NNE 9.2 mph - N/A   Clear
7:16 PM -5.8 °F -22.4 °F -14.8 °F 65% 29.81 in 10.0 mi North 9.2 mph - N/A   Clear
7:36 PM -7.6 °F -20.6 °F -20.2 °F 54% 29.80 in 10.0 mi North 5.8 mph - N/A   Clear
7:56 PM -7.6 °F -22.1 °F -18.4 °F 59% 29.80 in 10.0 mi NNE 6.9 mph - N/A   Clear
8:16 PM -7.6 °F -25.7 °F -16.6 °F 65% 29.80 in 10.0 mi NNE 10.4 mph - N/A   Clear
8:36 PM -7.6 °F -22.1 °F -16.6 °F 65% 29.80 in 10.0 mi North 6.9 mph - N/A   Clear
8:56 PM -7.6 °F -22.1 °F -16.6 °F 65% 29.80 in 10.0 mi NNW 6.9 mph - N/A   Clear
9:16 PM -5.8 °F -16.7 °F -14.8 °F 65% 29.80 in 10.0 mi North 4.6 mph - N/A   Clear
9:36 PM -5.8 °F -16.7 °F -14.8 °F 65% 29.79 in 10.0 mi North 4.6 mph - N/A   Clear
9:56 PM -9.4 °F -20.9 °F -18.4 °F 65% 29.79 in 10.0 mi NNE 4.6 mph - N/A   Clear
10:16 PM -7.6 °F - -16.6 °F 65% 29.79 in 10.0 mi Calm Calm - N/A   Clear
10:36 PM -7.6 °F -23.4 °F -16.6 °F 65% 29.79 in 10.0 mi NNE 8.1 mph - N/A   Clear
10:56 PM -5.8 °F -21.2 °F -11.2 °F 77% 29.78 in 10.0 mi NNE 8.1 mph - N/A   Clear
11:16 PM -9.4 °F -26.8 °F -20.2 °F 59% 29.78 in 10.0 mi NNE 9.2 mph - N/A   Clear
11:36 PM -9.4 °F -25.6 °F -20.2 °F 59% 29.77 in 10.0 mi NNE 8.1 mph - N/A   Clear
11:56 PM -5.8 °F -23.4 °F -13.0 °F 71% 29.77 in 10.0 mi NNE 10.4 mph - N/A   Clear